Weather History for Eagle, AK

Change the Weather History Date:

Sunday, May 5, 2013

  Actual Average (PABN) Record (PABN)
Temperature  
Mean Temperature 30 °F -  
Max Temperature 42 °F 41 °F 62 °F (2014)
Min Temperature 19 °F 32 °F 23 °F (2013)
Degree Days  
Heating Degree Days 35    
Moisture  
Dew Point 16 °F    
Average Humidity 64    
Maximum Humidity 93    
Minimum Humidity 29    
Precipitation  
Precipitation 0.00 in - - ()
Sea Level Pressure  
Sea Level Pressure 30.06 in    
Wind  
Wind Speed 2 mph (NNE)    
Max Wind Speed 8 mph    
Max Gust Speed -    
Visibility 8 miles    
Events Snow    
Averages and records for this station are not official NWS values.
T = Trace of Precipitation, MM = Missing Value Source: NWS Daily Summary

Daily Weather History Graph

Daily Weather History Graph

Search for Another Location

Airport:

Trip Planner

Search our weather history database for the weather conditions in past years. The results will help you decide how hot, cold, wet, or windy it might be!

Date:

Astronomy

May. 05, 2013 Rise Set
Actual Time 4:36 AM AKDT 10:08 PM AKDT
Civil Twilight 3:15 AM AKDT 11:32 PM AKDT
Nautical Twilight Sun does not rise Sun does not rise
Astronomical Twilight Sun does not rise Sun does not rise
Moon 3:48 AM AKDT (5/5) 4:50 PM AKDT (5/5)
Length of Visible Light 20h 17m
Length of Day
17h 32m
Waning Crescent, 17% of the Moon is Illuminated
May 5
Waning Crescent
May 9
New
May 17
First Quarter
May 24
Full
May 31
Last Quarter

Hourly Weather History & Observations

Time (AKDT) Temp. Windchill Dew Point Humidity Pressure Visibility Wind Dir Wind Speed Gust Speed Precip Events Conditions
12:53 AM 24.1 °F 19.7 °F 17.1 °F 75% 29.97 in 6.0 mi WNW 3.5 mph - 0.00 in Snow Light Snow
1:53 AM 24.1 °F 19.7 °F 18.0 °F 77% 29.99 in 4.0 mi West 3.5 mph - 0.00 in Snow Light Snow
2:53 AM 21.9 °F - 18.0 °F 85% 30.01 in 5.0 mi Calm Calm - 0.00 in Snow Light Snow
3:38 AM 19.4 °F - 17.6 °F 93% 29.99 in 9.0 mi Calm Calm - 0.00 in   Overcast
3:53 AM 21.0 °F - 17.1 °F 85% 30.04 in 5.0 mi Calm Calm - 0.00 in Snow Light Snow
4:32 AM 21.2 °F - 17.6 °F 86% 30.00 in 5.0 mi Calm Calm - 0.00 in Snow Light Snow
4:50 AM 21.2 °F - 17.6 °F 86% 30.01 in 2.0 mi Calm Calm - 0.00 in Snow Light Snow
4:53 AM 21.0 °F - 17.1 °F 85% 30.06 in 1.8 mi Calm Calm - 0.00 in Snow Light Snow
5:04 AM 21.2 °F - 17.6 °F 86% 30.01 in 3.0 mi Calm Calm - 0.00 in Snow Light Snow
5:29 AM 21.2 °F - 17.6 °F 86% 30.02 in 2.5 mi Calm Calm - 0.00 in Snow Light Snow
5:36 AM 21.2 °F - 17.6 °F 86% 30.02 in 4.0 mi Calm Calm - 0.00 in Snow Light Snow
5:53 AM 21.9 °F - 18.0 °F 85% 30.07 in 6.0 mi Calm Calm - 0.00 in   Overcast
6:53 AM 23.0 °F - 19.0 °F 85% 30.09 in 10.0 mi Calm Calm - N/A   Overcast
7:53 AM 25.0 °F - 17.1 °F 72% 30.10 in 10.0 mi Calm Calm - N/A   Mostly Cloudy
8:53 AM 28.9 °F - 18.0 °F 64% 30.12 in 10.0 mi Calm Calm - N/A   Clear
9:53 AM 30.9 °F 27.5 °F 18.0 °F 59% 30.12 in 10.0 mi NE 3.5 mph - N/A   Clear
10:53 AM 34.0 °F 31.0 °F 17.1 °F 50% 30.12 in 10.0 mi NNE 3.5 mph - N/A   Clear
11:53 AM 36.0 °F 29.6 °F 16.0 °F 44% 30.11 in 10.0 mi NE 8.1 mph - N/A   Clear
12:53 PM 36.0 °F 33.3 °F 15.1 °F 43% 30.11 in 10.0 mi NNE 3.5 mph - N/A   Overcast
1:53 PM 37.0 °F 34.5 °F 14.0 °F 39% 30.10 in 10.0 mi East 3.5 mph - N/A   Overcast
2:53 PM 39.9 °F 36.7 °F 16.0 °F 38% 30.09 in 10.0 mi NE 4.6 mph - 0.00 in   Overcast
3:53 PM 37.9 °F 33.5 °F 16.0 °F 41% 30.09 in 10.0 mi NE 5.8 mph - N/A   Overcast
4:53 PM 39.9 °F 35.8 °F 15.1 °F 36% 30.08 in 10.0 mi NE 5.8 mph - N/A   Overcast
5:53 PM 41.0 °F 37.1 °F 14.0 °F 33% 30.07 in 10.0 mi ENE 5.8 mph - N/A   Overcast
6:53 PM 39.9 °F 37.8 °F 14.0 °F 35% 30.07 in 10.0 mi NE 3.5 mph - N/A   Overcast
7:53 PM 39.9 °F 35.8 °F 10.0 °F 29% 30.06 in 10.0 mi West 5.8 mph - N/A   Partly Cloudy
8:53 PM 37.9 °F - 15.1 °F 39% 30.07 in 10.0 mi Calm Calm - N/A   Clear
9:53 PM 30.0 °F 25.2 °F 15.1 °F 54% 30.08 in 10.0 mi SSE 4.6 mph - N/A   Clear
10:53 PM 25.0 °F - 15.1 °F 66% 30.10 in 10.0 mi Calm Calm - N/A   Clear
11:53 PM 23.0 °F - 15.1 °F 72% 30.11 in 10.0 mi Calm Calm - N/A   Scattered Clouds